This is the latest recevied weather packets stored in our database for station/object K2RMB. If no packets are shown the sender has not sent any weather packets the latest 10 day(s).
| Time | Temp. | Humidity | Pressure | Rain* | Wind** | Luminosity | Snow |
|---|---|---|---|---|---|---|---|
| 1777823513 | 6.67° C | 54% | 1010.4 hPa | 0 mm | - | 205 W/m² | - |
| 1777823210 | 6.67° C | 51% | 1010.1 hPa | 0 mm | - | 312 W/m² | - |
| 1777822908 | 6.67° C | 52% | 1010.1 hPa | 0 mm | - | 296 W/m² | - |
| 1777822606 | 6.67° C | 52% | 1010.1 hPa | 0 mm | - | 172 W/m² | - |
| 1777822303 | 6.67° C | 48% | 1010.4 hPa | 0 mm | - | 187 W/m² | - |
| 1777822000 | 6.67° C | 50% | 1010.1 hPa | 0 mm | - | 183 W/m² | - |
| 1777821698 | 7.22° C | 47% | 1010.4 hPa | 0 mm | - | 187 W/m² | - |
| 1777821396 | 7.22° C | 49% | 1010.1 hPa | 0 mm | - | 197 W/m² | - |
| 1777821092 | 6.67° C | 51% | 1010.1 hPa | 0 mm | - | 235 W/m² | - |
| 1777820789 | 6.67° C | 51% | 1010.4 hPa | 0 mm | - | 285 W/m² | - |
| 1777820485 | 7.22° C | 55% | 1010.1 hPa | 0 mm | - | 241 W/m² | - |
| 1777820182 | 6.67° C | 56% | 1010.4 hPa | 0 mm | - | 288 W/m² | - |
| 1777819880 | 6.67° C | 58% | 1010.4 hPa | 0 mm | - | 250 W/m² | - |
| 1777819577 | 6.67° C | 59% | 1010.1 hPa | 0 mm | - | 464 W/m² | - |
| 1777819274 | 6.11° C | 63% | 1010.4 hPa | 0 mm | - | 350 W/m² | - |
| 1777818971 | 5.56° C | 64% | 1010.4 hPa | 0 mm | - | 251 W/m² | - |
| 1777818668 | 6.11° C | 63% | 1010.4 hPa | 0 mm | - | 136 W/m² | - |
| 1777818365 | 6.67° C | 62% | 1010.4 hPa | 0 mm | - | 233 W/m² | - |
| 1777818061 | 6.67° C | 61% | 1010.4 hPa | 0 mm | - | 956 W/m² | - |
| 1777817758 | 6.67° C | 63% | 1010.4 hPa | 0 mm | - | 573 W/m² | - |
| 1777817455 | 6.11° C | 65% | 1010.4 hPa | 0 mm | - | 824 W/m² | - |
| 1777817151 | 5.56° C | 65% | 1010.8 hPa | 0 mm | - | 779 W/m² | - |
| 1777816849 | 5.56° C | 67% | 1010.8 hPa | 0 mm | - | 254 W/m² | - |
| 1777816546 | 5.56° C | 69% | 1010.4 hPa | 0 mm | - | 211 W/m² | - |
| 1777816243 | 5.56° C | 70% | 1010.8 hPa | 0 mm | - | 137 W/m² | - |
* Rain latest hour (hover to see other rain measurements)
** Current wind speed in m/s (hover to see current wind gust speed)